{"data":{"norad_id":58467,"intl_designator":"2023-185F","name":"LILIUM-1","alt_names":[],"object_type":"PAYLOAD","status":"ACTIVE","operator":null,"country":"ROC","launch_date":"2023-12-01","launch_site_code":"AFWTR","launch_vehicle":null,"mission":null,"orbit_class":"UNKNOWN","rcs_meters":null,"size_class":null,"mass_kg":null,"dimensions":null,"purposes":[],"wikipedia_slug":null,"has_3d_model":false,"image_url":null,"decayed_at":null,"tle_current":{"epoch":"2026-05-24T12:31:39.963648Z","epoch_age_seconds":112348,"freshness":"FRESH","line1":"1 58467U 23185F   26144.52199032  .00699904  23186-3  12394-2 0  9998","line2":"2 58467  97.3212 228.1401 0010548 236.8078 123.2191 16.01847451138857","mean_motion":16.01847451,"eccentricity":0.0010548,"inclination_deg":97.3212,"raan_deg":228.1401,"arg_perigee_deg":236.8078,"mean_anomaly_deg":123.2191,"bstar":0.0012394,"rev_number":13885,"period_min":89.896200733786,"perigee_km":262.29095823206,"apogee_km":276.31439697593,"semimajor_km":6647.439677604,"source":"CELESTRAK","updated_at":"2026-05-25T13:38:00.765629Z"}}}